N6WDO Weather Reports


time (UTC)temp
F
wind
direction
speed
knots
gust
knots
rain 1hr
in
rain 24hr
in
rain mn
in
humidity
%
barometer
mb
20260506164036 62 149 1.7 1.7 0.00 0.00 0.00 62 1021.4
20260506163532 63 168 1.7 1.7 0.00 0.00 0.00 63 1021.7
20260506163028 62 163 1.7 1.7 0.00 0.00 0.00 59 1021.5
20260506162525 61 149 1.7 2.6 0.00 0.00 0.00 64 1021.7
20260506162022 61 190 3.5 3.5 0.00 0.00 0.00 65 1021.7
20260506161519 62 170 1.7 2.6 0.00 0.00 0.00 66 1021.8
20260506161016 62 177 0.9 0.9 0.00 0.00 0.00 65 1021.5
20260506160513 61 153 0.9 1.7 0.00 0.00 0.00 68 1021.8
20260506160011 61 169 0.9 1.7 0.00 0.00 0.00 67 1021.5
20260506155508 60 168 2.6 2.6 0.00 0.00 0.00 66 1021.7
20260506153640 60 90 0.9 0.9 0.00 0.00 0.00 73 1021.7
20260506153137 60 105 0.0 0.9 0.00 0.00 0.00 72 1021.8
20260506152634 60 89 0.9 1.7 0.00 0.00 0.00 73 1021.5
20260506152132 60 132 0.0 0.9 0.00 0.00 0.00 77 1021.8
20260506151631 60 111 0.0 0.9 0.00 0.00 0.00 76 1021.7
20260506151127 59 136 0.0 0.0 0.00 0.00 0.00 79 1021.5
20260506150624 58 108 0.9 0.9 0.00 0.00 0.00 77 1021.8
20260506150121 57 118 0.0 0.9 0.00 0.00 0.00 82 1021.5
20260506145618 57 107 0.9 0.9 0.00 0.00 0.00 81 1021.7
20260506145115 56 143 0.0 0.0 0.00 0.00 0.00 82 1021.7
20260506144612 55 145 0.0 0.0 0.00 0.00 0.00 84 1021.5
20260506144108 54 143 0.0 0.0 0.00 0.00 0.00 86 1021.7
20260506143606 52 154 0.0 0.0 0.00 0.00 0.00 90 1021.8
20260506143104 51 134 0.0 0.0 0.00 0.00 0.00 95 1021.9
20260506142602 50 142 0.0 0.0 0.00 0.00 0.00 95 1021.8
20260506142100 50 152 0.0 0.0 0.00 0.00 0.00 96 1021.7
20260506141557 49 160 0.0 0.0 0.00 0.00 0.00 98 1021.5
20260506141056 49 159 0.0 0.0 0.00 0.00 0.00 99 1021.7
20260506140553 48 150 0.0 0.0 0.00 0.00 0.00 99 1021.5
20260506140050 46 160 0.0 0.0 0.00 0.00 0.00 99 1021.5
20260506135547 46 167 0.0 0.0 0.00 0.00 0.00 99 1021.3
20260506135043 46 167 0.0 0.0 0.00 0.00 0.00 99 1021.4
20260506134539 46 167 0.0 0.0 0.00 0.00 0.00 99 1021.2
20260506134035 46 167 0.0 0.0 0.00 0.00 0.00 99 1021.2
20260506133533 44 167 0.0 0.0 0.00 0.00 0.00 99 1021.4
20260506133030 43 176 0.0 0.0 0.00 0.00 0.00 99 1021.5
20260506132527 43 176 0.0 0.0 0.00 0.00 0.00 99 1021.0
20260506132024 43 176 0.0 0.0 0.00 0.00 0.00 99 1020.9
20260506131521 43 177 0.0 0.0 0.00 0.00 0.00 99 1021.1
20260506131017 43 177 0.0 0.0 0.00 0.00 0.00 99 1020.8
20260506130514 43 166 0.0 0.0 0.00 0.00 0.00 99 1021.0
20260506130012 43 176 0.0 0.0 0.00 0.00 0.00 99 1020.9
20260506125510 44 177 0.0 0.0 0.00 0.00 0.00 99 1020.8
20260506125008 44 195 0.0 0.0 0.00 0.00 0.00 99 1020.6
20260506124505 44 189 0.0 0.0 0.00 0.00 0.00 99 1020.7
20260506124003 44 193 0.0 0.0 0.00 0.00 0.00 99 1020.6
20260506123501 43 196 0.0 0.0 0.00 0.00 0.00 99 1020.6
20260506122958 43 170 0.0 0.0 0.00 0.00 0.00 99 1020.5
20260506122455 44 170 0.0 0.0 0.00 0.00 0.00 99 1020.6
20260506121953 44 175 0.0 0.0 0.00 0.00 0.00 99 1020.4
20260506121450 44 164 0.0 0.0 0.00 0.00 0.00 99 1020.4
20260506120946 44 210 0.0 0.0 0.00 0.00 0.00 99 1020.6
20260506120444 44 196 0.0 0.0 0.00 0.00 0.00 99 1020.3
20260506115941 44 197 0.0 0.0 0.00 0.00 0.00 99 1020.6
20260506115439 44 195 0.0 0.0 0.00 0.00 0.00 99 1020.5
20260506114937 44 169 0.0 0.0 0.00 0.00 0.00 99 1020.5
20260506114434 44 169 0.0 0.0 0.00 0.00 0.00 99 1020.5
20260506113933 43 169 0.0 0.0 0.00 0.00 0.00 99 1020.5
20260506113431 43 169 0.0 0.0 0.00 0.00 0.00 99 1020.5
20260506112927 44 173 0.0 0.0 0.00 0.00 0.00 99 1020.6
20260506112425 43 164 0.0 0.0 0.00 0.00 0.00 99 1020.6
20260506111921 43 164 0.0 0.0 0.00 0.00 0.00 99 1020.4
20260506111420 44 192 0.0 0.0 0.00 0.00 0.00 99 1020.4
20260506110916 44 170 0.0 0.0 0.00 0.00 0.00 99 1020.2
20260506110414 44 193 0.0 0.0 0.00 0.00 0.00 99 1020.5
20260506105910 44 187 0.0 0.0 0.00 0.00 0.00 99 1020.2
20260506105407 44 177 0.0 0.0 0.00 0.00 0.00 99 1020.4
20260506104904 44 199 0.0 0.0 0.00 0.00 0.00 99 1020.4
20260506104402 44 178 0.0 0.0 0.00 0.00 0.00 99 1020.2
20260506103900 44 187 0.0 0.0 0.00 0.00 0.00 99 1020.1
20260506103357 44 210 0.0 0.0 0.00 0.00 0.00 99 1020.2
20260506102854 44 183 0.0 0.0 0.00 0.00 0.00 99 1019.9
20260506102352 44 189 0.0 0.0 0.00 0.00 0.00 99 1020.1
20260506101849 43 174 0.0 0.0 0.00 0.00 0.00 99 1019.9
20260506101345 43 179 0.0 0.0 0.00 0.00 0.00 99 1020.1
20260506100843 44 155 0.0 0.0 0.00 0.00 0.00 99 1020.0
20260506100341 44 168 0.0 0.0 0.00 0.00 0.00 99 1020.1
20260506095839 44 169 0.0 0.0 0.00 0.00 0.00 99 1020.0
20260506095336 45 172 0.0 0.0 0.00 0.00 0.00 99 1019.9
20260506094833 45 172 0.0 0.0 0.00 0.00 0.00 99 1019.7
20260506094332 44 173 0.0 0.0 0.00 0.00 0.00 99 1020.0
20260506093829 44 172 0.0 0.0 0.00 0.00 0.00 99 1019.7
20260506093326 44 177 0.0 0.0 0.00 0.00 0.00 99 1019.7
20260506092824 45 202 0.0 0.9 0.00 0.00 0.00 99 1020.0
20260506092322 45 192 0.0 0.0 0.00 0.00 0.00 99 1020.0
20260506091818 44 161 0.0 0.0 0.00 0.00 0.00 99 1019.9
20260506091316 45 167 0.0 0.0 0.00 0.00 0.00 99 1020.2
20260506090814 44 175 0.0 0.0 0.00 0.00 0.00 98 1020.1
20260506090311 44 172 0.0 0.0 0.00 0.00 0.00 98 1020.3
20260506085807 44 172 0.0 0.0 0.00 0.00 0.00 98 1020.0
20260506085305 45 174 0.0 0.0 0.00 0.00 0.00 98 1020.3
20260506084800 45 173 0.0 0.0 0.00 0.00 0.00 98 1020.0
20260506084256 45 169 0.0 0.0 0.00 0.00 0.00 98 1020.2
20260506083753 45 170 0.0 0.0 0.00 0.00 0.00 98 1020.2
20260506083251 45 163 0.0 0.0 0.00 0.00 0.00 98 1020.4
20260506082748 45 163 0.0 0.0 0.00 0.00 0.00 98 1020.2
20260506082243 46 163 0.0 0.0 0.00 0.00 0.00 98 1020.4
20260506081742 46 192 0.0 0.0 0.00 0.00 0.00 98 1020.2
20260506081239 46 206 0.9 0.9 0.00 0.00 0.00 98 1020.2
20260506080737 46 220 0.9 0.9 0.00 0.00 0.00 98 1020.3
20260506080233 45 214 0.0 0.0 0.00 0.00 0.00 98 1020.2
20260506073217 46 185 0.0 0.0 0.00 0.00 0.00 98 1019.9
20260506072714 45 176 0.0 0.0 0.00 0.00 0.00 97 1019.7
20260506072212 46 182 0.0 0.0 0.00 0.00 0.00 97 1019.9
20260506071709 46 190 0.0 0.0 0.00 0.00 0.00 97 1019.7
20260506071207 46 206 0.0 0.9 0.00 0.00 0.00 97 1019.6
20260506070703 46 194 0.0 0.0 0.00 0.00 0.00 97 1019.5
20260506070201 46 195 0.0 0.0 0.00 0.00 0.00 97 1019.5
20260506062137 46 182 0.0 0.0 0.00 0.05 0.05 95 1019.2
20260506061633 46 182 0.0 0.0 0.00 0.05 0.05 95 1019.2
20260506061131 47 183 0.0 0.0 0.00 0.05 0.05 95 1019.1
20260506060629 47 186 0.0 0.9 0.00 0.05 0.05 95 1019.3
20260506060126 47 178 0.0 0.0 0.00 0.05 0.05 95 1019.0
20260506051058 47 212 0.9 0.9 0.00 0.05 0.05 96 1018.6
20260506050556 47 220 0.9 0.9 0.00 0.05 0.05 96 1018.7
20260506045046 48 211 0.0 0.9 0.00 0.05 0.05 95 1018.5
20260506044544 47 148 0.0 0.0 0.00 0.05 0.05 95 1018.6
20260506044041 47 178 0.0 0.0 0.00 0.05 0.05 95 1018.4
20260506043538 48 193 0.0 0.0 0.00 0.05 0.05 94 1018.4
20260506043036 48 192 0.0 0.0 0.00 0.05 0.05 94 1018.4
20260506042535 48 177 0.0 0.0 0.00 0.05 0.05 94 1018.2
20260506042033 48 175 0.0 0.0 0.00 0.05 0.05 95 1018.3
20260506041531 48 176 0.0 0.0 0.00 0.05 0.05 94 1018.0
20260506041027 48 177 0.0 0.0 0.00 0.05 0.05 93 1018.2
20260506040525 48 179 0.0 0.0 0.00 0.05 0.05 93 1018.0
20260506040021 48 179 0.0 0.0 0.00 0.05 0.05 92 1017.8
20260506035518 48 176 0.0 0.0 0.00 0.05 0.05 92 1017.9
20260506035015 49 176 0.9 0.9 0.00 0.05 0.05 91 1017.7
20260506034513 49 166 0.0 0.0 0.00 0.05 0.05 90 1017.6
20260506034009 49 189 0.0 0.0 0.00 0.05 0.05 90 1017.7
20260506033507 49 196 0.0 0.9 0.00 0.05 0.05 90 1017.4
20260506033004 50 193 0.0 0.0 0.00 0.05 0.05 89 1017.7
20260506032501 49 209 0.9 0.9 0.00 0.05 0.05 90 1017.5
20260506031957 49 210 0.9 0.9 0.00 0.05 0.05 91 1017.5
20260506031455 49 177 0.9 0.9 0.00 0.05 0.05 90 1017.2
20260506030952 50 192 0.0 0.0 0.00 0.05 0.05 90 1017.5
20260506030450 50 210 0.9 0.9 0.00 0.05 0.05 89 1017.3
20260506025946 50 197 0.9 0.9 0.00 0.05 0.05 89 1017.3
20260506025443 51 167 0.0 0.0 0.00 0.05 0.05 88 1017.1
20260506024940 51 197 0.9 0.9 0.00 0.05 0.05 88 1017.1
20260506024437 51 215 0.9 0.9 0.00 0.05 0.05 87 1016.9
20260506023932 52 199 0.0 0.9 0.00 0.05 0.05 85 1016.9
20260506023430 53 193 0.0 0.9 0.00 0.05 0.05 85 1016.7
20260506022926 53 177 0.9 0.9 0.00 0.05 0.05 84 1016.9
20260506022424 54 186 0.0 0.0 0.00 0.05 0.05 81 1016.7
20260506021922 54 186 0.0 0.0 0.00 0.05 0.05 82 1016.6
20260506021419 55 177 0.0 0.0 0.00 0.05 0.05 83 1016.9
20260506020916 56 184 0.0 0.0 0.00 0.05 0.05 82 1016.7
20260506020414 56 172 0.0 0.0 0.00 0.05 0.05 76 1016.7
20260506015910 57 172 0.0 0.0 0.00 0.05 0.05 76 1016.7
20260506015408 57 172 0.0 0.0 0.00 0.05 0.05 76 1016.6
20260506014905 57 172 0.0 0.0 0.00 0.05 0.05 75 1016.8
20260506014402 57 172 0.0 0.0 0.00 0.05 0.05 74 1016.6
20260506013858 57 131 0.0 0.9 0.00 0.05 0.05 73 1016.6
20260506013356 57 59 0.9 0.9 0.00 0.05 0.05 73 1016.6
20260506012852 57 336 0.0 0.0 0.00 0.05 0.05 72 1016.6
20260506012349 57 332 0.9 0.9 0.00 0.05 0.05 71 1016.9
20260506011846 58 306 0.0 0.0 0.00 0.05 0.05 73 1016.6
20260506011343 58 345 0.9 0.9 0.00 0.05 0.05 72 1016.7
20260506010840 58 45 0.9 0.9 0.00 0.05 0.05 72 1016.8
20260506010338 58 184 0.0 0.0 0.00 0.05 0.05 75 1016.7
20260506005835 58 202 0.9 0.9 0.00 0.05 0.05 73 1016.8
20260506005332 58 210 0.9 0.9 0.00 0.05 0.05 73 1016.7
20260506004827 58 179 0.9 1.7 0.00 0.05 0.05 73 1016.6
20260506004326 59 175 0.0 0.0 0.00 0.05 0.05 72 1016.7
20260506003821 59 199 0.0 0.9 0.00 0.05 0.05 70 1016.7
20260506003318 59 179 0.0 0.0 0.00 0.05 0.05 71 1016.6
20260506002814 59 104 0.0 0.0 0.00 0.05 0.05 70 1016.6
20260506002311 59 65 0.9 0.9 0.00 0.05 0.05 70 1016.6
20260506001806 59 117 0.0 0.0 0.00 0.05 0.05 69 1016.6
20260506001304 59 50 0.0 0.9 0.00 0.05 0.05 71 1016.6
20260506000801 59 91 0.0 0.0 0.00 0.05 0.05 70 1016.7
20260506000258 59 67 0.9 0.9 0.00 0.05 0.05 73 1016.8
20260505235755 59 145 0.0 0.0 0.00 0.05 0.05 73 1016.7
20260505235253 58 191 0.0 0.0 0.00 0.05 0.05 74 1016.7
20260505234749 58 195 1.7 1.7 0.00 0.05 0.05 75 1016.6
20260505234247 58 170 0.9 1.7 0.00 0.05 0.05 78 1016.8
20260505233743 58 161 0.9 1.7 0.00 0.05 0.05 77 1016.6
20260505233242 58 165 0.9 1.7 0.00 0.05 0.05 76 1016.8
20260505232738 57 169 0.0 0.9 0.00 0.05 0.05 79 1016.6
20260505232236 57 188 0.9 0.9 0.00 0.05 0.05 79 1016.8
20260505231732 58 182 3.5 5.2 0.00 0.05 0.05 78 1016.7
20260505231232 58 206 0.9 0.9 0.00 0.05 0.05 76 1016.5
20260505230729 58 169 0.9 0.9 0.00 0.05 0.05 72 1016.6
20260505230226 59 139 0.0 0.0 0.00 0.05 0.05 70 1016.7
20260505225722 58 218 0.9 0.9 0.00 0.05 0.05 68 1016.7
20260505225219 59 163 0.0 0.0 0.00 0.05 0.05 71 1016.6
20260505224715 59 177 0.0 0.0 0.00 0.05 0.05 66 1016.8
20260505224212 59 346 0.0 0.0 0.00 0.05 0.05 67 1016.6
20260505223710 59 347 0.0 0.0 0.00 0.05 0.05 68 1016.7
20260505223206 58 347 0.0 0.0 0.00 0.05 0.05 66 1016.8
20260505222702 59 347 0.0 0.0 0.00 0.05 0.05 66 1016.7
20260505222158 59 347 0.0 0.9 0.00 0.05 0.05 65 1016.7
20260505221656 59 353 0.9 0.9 0.00 0.05 0.05 65 1016.5
20260505221152 58 327 0.0 0.0 0.00 0.05 0.05 67 1016.5
20260505220649 58 162 0.0 0.0 0.00 0.05 0.05 66 1016.7
20260505220147 58 43 0.0 0.9 0.00 0.05 0.05 66 1016.7
20260505215644 58 47 0.9 0.9 0.00 0.05 0.05 66 1016.9
20260505215142 58 81 0.0 0.9 0.00 0.05 0.05 67 1016.7
20260505214640 58 329 0.9 0.9 0.00 0.05 0.05 68 1016.6
20260505214137 58 64 0.9 0.9 0.00 0.05 0.05 68 1016.8
20260505213635 58 111 0.0 0.0 0.00 0.05 0.05 69 1016.9
20260505213131 58 54 0.0 0.9 0.00 0.05 0.05 71 1016.7
20260505212627 58 42 1.7 1.7 0.00 0.05 0.05 70 1017.1
20260505212125 59 188 0.0 0.0 0.00 0.05 0.05 70 1016.9
20260505211621 59 178 0.0 0.0 0.00 0.05 0.05 68 1016.8
20260505211119 59 292 0.0 0.9 0.00 0.05 0.05 68 1016.8
20260505210615 58 196 0.0 0.0 0.00 0.05 0.05 68 1016.6
20260505210112 58 175 0.0 0.0 0.00 0.05 0.05 72 1016.7
20260505205610 58 338 0.9 0.9 0.00 0.05 0.05 69 1016.5
20260505205107 57 179 0.0 0.0 0.00 0.05 0.05 72 1016.8
20260505204604 57 104 0.9 0.9 0.00 0.05 0.05 76 1016.5
20260505204102 57 119 0.0 0.0 0.00 0.05 0.05 76 1016.7
20260505203558 57 83 0.0 0.0 0.00 0.05 0.05 76 1016.6
20260505203055 57 46 0.9 0.9 0.00 0.05 0.05 76 1016.5
20260505202551 57 64 0.0 0.9 0.00 0.05 0.05 77 1016.5
20260505202047 57 332 1.7 1.7 0.00 0.05 0.05 74 1016.6
20260505201544 57 18 0.9 0.9 0.00 0.05 0.05 72 1016.7
20260505201042 57 202 0.0 0.9 0.00 0.05 0.05 73 1016.6
20260505200539 57 138 0.0 0.0 0.00 0.05 0.05 75 1016.5
20260505200036 57 347 0.9 1.7 0.00 0.05 0.05 75 1016.2
20260505195532 57 348 0.0 0.0 0.00 0.05 0.05 76 1016.6
20260505195030 57 144 0.0 0.0 0.00 0.05 0.05 76 1016.8
20260505194527 57 211 0.0 0.0 0.00 0.05 0.05 76 1016.7
20260505194022 57 229 0.0 0.9 0.00 0.05 0.05 77 1016.8
20260505193520 57 221 0.0 0.9 0.00 0.05 0.05 77 1016.8
20260505193017 57 296 0.0 0.0 0.00 0.05 0.05 77 1016.6
20260505192516 57 296 0.0 0.0 0.00 0.05 0.05 77 1016.6
20260505192013 58 266 0.0 0.0 0.00 0.05 0.05 75 1016.5
20260505191511 58 293 0.0 0.0 0.00 0.05 0.05 77 1016.9
20260505191009 58 280 0.0 0.0 0.00 0.05 0.05 77 1016.6
20260505190503 58 234 0.9 0.9 0.00 0.05 0.05 78 1016.7
20260505185958 58 290 0.0 0.9 0.00 0.05 0.05 77 1016.5
20260505185456 58 205 0.0 0.0 0.00 0.05 0.05 77 1016.3
20260505184952 58 197 0.0 0.0 0.00 0.05 0.05 79 1016.5
20260505184449 57 218 0.0 0.9 0.00 0.05 0.05 78 1016.6
20260505183945 58 209 0.0 0.9 0.00 0.05 0.05 79 1016.5
20260505183443 59 218 0.0 0.0 0.00 0.05 0.05 78 1016.6
20260505182939 59 223 1.7 2.6 0.00 0.05 0.05 76 1016.5
20260505182436 59 262 0.0 0.0 0.00 0.05 0.05 74 1016.5
20260505181932 60 273 0.0 0.0 0.00 0.05 0.05 78 1016.5
20260505181430 60 317 0.9 1.7 0.00 0.05 0.05 74 1016.2
20260505180927 59 327 0.9 0.9 0.00 0.05 0.05 79 1016.1
20260505180423 59 194 0.0 0.0 0.00 0.05 0.05 77 1016.2
20260505175920 58 2 0.9 0.9 0.00 0.05 0.05 80 1016.1
20260505175416 57 339 1.7 1.7 0.00 0.05 0.05 81 1016.2
20260505174912 56 14 1.7 2.6 0.00 0.05 0.05 85 1016.1
20260505174410 55 155 0.0 0.0 0.00 0.05 0.05 86 1016.0
20260505173906 55 174 0.0 0.0 0.00 0.05 0.05 88 1016.0
20260505173402 55 188 1.7 1.7 0.00 0.05 0.05 88 1016.0
20260505172900 55 84 0.0 0.0 0.00 0.05 0.05 89 1015.8
20260505172358 55 8 1.7 2.6 0.00 0.05 0.05 89 1015.9
20260505171857 55 344 0.9 0.9 0.00 0.05 0.05 89 1015.9
20260505171354 54 331 0.9 0.9 0.00 0.05 0.05 88 1015.8
20260505170850 54 193 0.0 0.9 0.00 0.05 0.05 89 1015.9
20260505170348 54 27 1.7 1.7 0.00 0.05 0.05 89 1015.9
20260505165842 54 40 2.6 2.6 0.00 0.05 0.05 90 1015.8
20260505165339 54 196 0.0 0.0 0.00 0.05 0.05 92 1015.7
20260505164835 54 151 0.0 0.0 0.00 0.05 0.05 92 1015.6